Location: Village de las Huertas
(35.3014°N, 106.4095°W)
Time: 08:36:52
(UTC+00:00)

Cosmos 407 Rocket - Pass Details

Date: 29 October 2020
Orbit: 743 x 787 km, 74.1° (Epoch: 04 December)

Event Time Altitude Azimuth Distance (km) Brightness Sun altitude
Rises 12:25:47 0° 203° (SSW) 3,165 6.5 -12.6°
Reaches altitude 10° 12:28:08 10° 206° (SSW) 2,246 5.7 -12.1°
Maximum altitude 12:33:11 66° 289° (WNW) 813 3.4 -11.1°
Drops below altitude 10° 12:38:18 10° 11° (NNE) 2,275 6.0 -10.1°
Sets 12:40:42 0° 15° (NNE) 3,209 6.8 -9.6°
